| time (UTC) | temp F | wind direction | speed MPH | gust MPH | rain 1hr in | rain 24hr in | rain mn in | humidity % | barometer mb |
| 20260503225333 | 68 | 243 | 2.0 | 6.0 | 0.00 | 0.00 | 0.00 | 47 | 1004.3 |
| 20260503224833 | 68 | 201 | 2.0 | 7.0 | 0.00 | 0.00 | 0.00 | 47 | 1004.5 |
| 20260503224333 | 68 | 204 | 2.0 | 7.0 | 0.00 | 0.00 | 0.00 | 46 | 1004.5 |
| 20260503223833 | 68 | 206 | 3.0 | 7.0 | 0.00 | 0.00 | 0.00 | 46 | 1004.5 |
| 20260503223333 | 68 | 217 | 2.0 | 6.0 | 0.00 | 0.00 | 0.00 | 47 | 1004.7 |
| 20260503222833 | 68 | 194 | 2.0 | 5.0 | 0.00 | 0.00 | 0.00 | 46 | 1004.7 |
| 20260503222333 | 68 | 222 | 1.0 | 7.0 | 0.00 | 0.00 | 0.00 | 47 | 1004.8 |
| 20260503221833 | 68 | 212 | 2.0 | 8.0 | 0.00 | 0.00 | 0.00 | 46 | 1004.9 |
| 20260503221333 | 68 | 258 | 2.0 | 8.0 | 0.00 | 0.00 | 0.00 | 46 | 1004.9 |
| 20260503220833 | 68 | 247 | 2.0 | 7.0 | 0.00 | 0.00 | 0.00 | 46 | 1005.0 |
| 20260503220333 | 68 | 200 | 2.0 | 7.0 | 0.00 | 0.00 | 0.00 | 47 | 1005.0 |
| 20260503215833 | 68 | 214 | 2.0 | 7.0 | 0.00 | 0.00 | 0.00 | 46 | 1005.0 |
| 20260503215333 | 68 | 240 | 3.0 | 12.0 | 0.00 | 0.00 | 0.00 | 45 | 1005.1 |
| 20260503214833 | 68 | 207 | 4.0 | 12.0 | 0.00 | 0.00 | 0.00 | 45 | 1005.0 |
| 20260503214333 | 68 | 209 | 2.0 | 9.0 | 0.00 | 0.00 | 0.00 | 45 | 1005.2 |
| 20260503213833 | 68 | 239 | 2.0 | 9.0 | 0.00 | 0.00 | 0.00 | 45 | 1005.3 |
| 20260503213333 | 68 | 223 | 2.0 | 10.0 | 0.00 | 0.00 | 0.00 | 45 | 1005.3 |
| 20260503212833 | 68 | 183 | 1.0 | 10.0 | 0.00 | 0.00 | 0.00 | 44 | 1005.2 |
| 20260503212333 | 68 | 224 | 3.0 | 11.0 | 0.00 | 0.00 | 0.00 | 45 | 1005.4 |
| 20260503211833 | 68 | 256 | 3.0 | 11.0 | 0.00 | 0.00 | 0.00 | 44 | 1005.5 |
| 20260503211333 | 68 | 245 | 1.0 | 9.0 | 0.00 | 0.00 | 0.00 | 44 | 1005.6 |
| 20260503210833 | 68 | 234 | 2.0 | 9.0 | 0.00 | 0.00 | 0.00 | 45 | 1005.6 |
| 20260503210333 | 68 | 231 | 4.0 | 11.0 | 0.00 | 0.00 | 0.00 | 43 | 1005.6 |
| 20260503205833 | 68 | 201 | 2.0 | 11.0 | 0.00 | 0.00 | 0.00 | 45 | 1005.6 |
| 20260503205333 | 68 | 255 | 1.0 | 12.0 | 0.00 | 0.00 | 0.00 | 45 | 1005.9 |
| 20260503204833 | 67 | 228 | 3.0 | 12.0 | 0.00 | 0.00 | 0.00 | 45 | 1005.9 |
| 20260503204333 | 66 | 224 | 2.0 | 9.0 | 0.00 | 0.00 | 0.00 | 47 | 1006.0 |
| 20260503203833 | 66 | 266 | 2.0 | 9.0 | 0.00 | 0.00 | 0.00 | 47 | 1006.1 |
| 20260503203333 | 66 | 260 | 2.0 | 9.0 | 0.00 | 0.00 | 0.00 | 48 | 1006.3 |
| 20260503202833 | 66 | 213 | 3.0 | 9.0 | 0.00 | 0.00 | 0.00 | 47 | 1006.4 |
| 20260503202333 | 66 | 205 | 3.0 | 10.0 | 0.00 | 0.00 | 0.00 | 48 | 1006.6 |
| 20260503201833 | 66 | 199 | 4.0 | 10.0 | 0.00 | 0.00 | 0.00 | 47 | 1006.7 |
| 20260503201333 | 66 | 213 | 0.0 | 9.0 | 0.00 | 0.00 | 0.00 | 49 | 1006.9 |
| 20260503200833 | 66 | 213 | 2.0 | 9.0 | 0.00 | 0.00 | 0.00 | 50 | 1006.9 |
| 20260503200333 | 66 | 211 | 1.0 | 9.0 | 0.00 | 0.00 | 0.00 | 53 | 1007.0 |
| 20260503195833 | 65 | 252 | 3.0 | 9.0 | 0.00 | 0.00 | 0.00 | 53 | 1007.0 |
| 20260503195333 | 65 | 271 | 1.0 | 11.0 | 0.00 | 0.00 | 0.00 | 53 | 1007.3 |
| 20260503194833 | 65 | 199 | 3.0 | 11.0 | 0.00 | 0.00 | 0.00 | 52 | 1007.3 |
| 20260503194333 | 65 | 226 | 2.0 | 9.0 | 0.00 | 0.00 | 0.00 | 52 | 1007.3 |
| 20260503193833 | 64 | 208 | 2.0 | 8.0 | 0.00 | 0.00 | 0.00 | 53 | 1007.3 |
| 20260503193333 | 64 | 197 | 3.0 | 8.0 | 0.00 | 0.00 | 0.00 | 52 | 1007.4 |
| 20260503192333 | 63 | 198 | 3.0 | 11.0 | 0.00 | 0.00 | 0.00 | 52 | 1007.6 |
| 20260503191833 | 62 | 190 | 4.0 | 11.0 | 0.00 | 0.00 | 0.00 | 53 | 1007.7 |
| 20260503191333 | 62 | 203 | 3.0 | 9.0 | 0.00 | 0.00 | 0.00 | 54 | 1007.6 |
| 20260503190833 | 61 | 201 | 3.0 | 9.0 | 0.00 | 0.00 | 0.00 | 56 | 1007.8 |
| 20260503190333 | 61 | 193 | 2.0 | 7.0 | 0.00 | 0.00 | 0.00 | 56 | 1007.9 |
| 20260503185833 | 60 | 227 | 3.0 | 8.0 | 0.00 | 0.00 | 0.00 | 56 | 1007.8 |
| 20260503185333 | 60 | 201 | 3.0 | 8.0 | 0.00 | 0.00 | 0.00 | 57 | 1007.9 |
| 20260503184833 | 60 | 210 | 3.0 | 8.0 | 0.00 | 0.00 | 0.00 | 57 | 1008.0 |
| 20260503184333 | 60 | 223 | 2.0 | 6.0 | 0.00 | 0.00 | 0.00 | 58 | 1008.1 |
| 20260503183833 | 60 | 195 | 2.0 | 5.0 | 0.00 | 0.00 | 0.00 | 59 | 1008.2 |
| 20260503183333 | 59 | 190 | 2.0 | 10.0 | 0.00 | 0.00 | 0.00 | 61 | 1008.3 |
| 20260503182833 | 59 | 188 | 3.0 | 10.0 | 0.00 | 0.00 | 0.00 | 61 | 1008.3 |
| 20260503182333 | 58 | 211 | 3.0 | 8.0 | 0.00 | 0.00 | 0.00 | 61 | 1008.6 |
| 20260503181833 | 58 | 206 | 2.0 | 7.0 | 0.00 | 0.00 | 0.00 | 62 | 1008.7 |
| 20260503181333 | 57 | 214 | 2.0 | 8.0 | 0.00 | 0.00 | 0.00 | 63 | 1008.9 |
| 20260503180832 | 57 | 227 | 1.0 | 8.0 | 0.00 | 0.00 | 0.00 | 63 | 1009.1 |
| 20260503180333 | 57 | 202 | 3.0 | 9.0 | 0.00 | 0.00 | 0.00 | 63 | 1009.3 |
| 20260503175833 | 56 | 226 | 4.0 | 9.0 | 0.00 | 0.00 | 0.00 | 64 | 1009.5 |
| 20260503175333 | 56 | 211 | 3.0 | 8.0 | 0.00 | 0.00 | 0.00 | 64 | 1009.7 |
| 20260503174833 | 56 | 259 | 2.0 | 10.0 | 0.00 | 0.00 | 0.00 | 66 | 1009.9 |
| 20260503173833 | 55 | 217 | 2.0 | 11.0 | 0.00 | 0.00 | 0.00 | 66 | 1010.3 |
| 20260503173333 | 55 | 242 | 2.0 | 8.0 | 0.00 | 0.00 | 0.00 | 67 | 1010.4 |
| 20260503172833 | 55 | 235 | 2.0 | 11.0 | 0.00 | 0.00 | 0.00 | 69 | 1010.4 |
| 20260503172333 | 54 | 229 | 3.0 | 11.0 | 0.00 | 0.00 | 0.00 | 69 | 1010.7 |
| 20260503171833 | 54 | 225 | 2.0 | 11.0 | 0.00 | 0.00 | 0.00 | 69 | 1010.6 |
| 20260503171333 | 54 | 209 | 3.0 | 10.0 | 0.00 | 0.00 | 0.00 | 70 | 1010.7 |
| 20260503170833 | 54 | 232 | 2.0 | 8.0 | 0.00 | 0.00 | 0.00 | 70 | 1010.8 |
| 20260503170333 | 54 | 203 | 2.0 | 8.0 | 0.00 | 0.00 | 0.00 | 71 | 1011.0 |
| 20260503150833 | 56 | 218 | 2.0 | 5.0 | 0.00 | 0.00 | 0.00 | 60 | 1011.7 |
| 20260503150333 | 56 | 245 | 2.0 | 8.0 | 0.00 | 0.00 | 0.00 | 60 | 1011.7 |
| 20260503131333 | 53 | 238 | 2.0 | 6.0 | 0.00 | 0.00 | 0.00 | 60 | 1012.7 |
| 20260503130833 | 53 | 248 | 2.0 | 6.0 | 0.00 | 0.00 | 0.00 | 60 | 1012.7 |
| 20260503130333 | 53 | 245 | 1.0 | 6.0 | 0.00 | 0.00 | 0.00 | 60 | 1012.7 |
| 20260503110333 | 47 | 247 | 0.0 | 3.0 | 0.00 | 0.00 | 0.00 | 64 | 1012.6 |
| 20260503090333 | 47 | 0 | 0.0 | 0.0 | 0.00 | 0.00 | 0.00 | 61 | 1013.3 |
| 20260503081333 | 47 | 204 | 0.0 | 2.0 | 0.00 | 0.00 | 0.00 | 61 | 1013.6 |
| 20260503080833 | 47 | 206 | 0.0 | 3.0 | 0.00 | 0.00 | 0.00 | 61 | 1013.5 |
| 20260503080333 | 46 | 223 | 0.0 | 3.0 | 0.00 | 0.00 | 0.00 | 61 | 1013.6 |
| 20260503072833 | 47 | 0 | 0.0 | 0.0 | 0.00 | 0.00 | 0.00 | 61 | 1013.6 |
| 20260503072333 | 47 | 209 | 0.0 | 1.0 | 0.00 | 0.00 | 0.00 | 61 | 1013.7 |
| 20260503071833 | 47 | 209 | 0.0 | 1.0 | 0.00 | 0.00 | 0.00 | 61 | 1013.7 |
| 20260503070833 | 47 | 209 | 0.0 | 1.0 | 0.00 | 0.00 | 0.00 | 61 | 1013.8 |
| 20260503070333 | 47 | 209 | 0.0 | 1.0 | 0.00 | 0.00 | 0.00 | 61 | 1013.9 |
| 20260503060333 | 45 | 221 | 0.0 | 1.0 | 0.00 | 0.00 | 0.00 | 66 | 1014.4 |
| 20260503054833 | 44 | 0 | 0.0 | 0.0 | 0.00 | 0.00 | 0.00 | 70 | 1014.4 |
| 20260503054333 | 43 | 0 | 0.0 | 0.0 | 0.00 | 0.00 | 0.00 | 71 | 1014.5 |
| 20260503053833 | 43 | 0 | 0.0 | 0.0 | 0.00 | 0.00 | 0.00 | 72 | 1014.5 |
| 20260503053333 | 43 | 0 | 0.0 | 0.0 | 0.00 | 0.00 | 0.00 | 73 | 1014.6 |
| 20260503052333 | 43 | 0 | 0.0 | 0.0 | 0.00 | 0.00 | 0.00 | 74 | 1014.7 |
| 20260503051833 | 43 | 0 | 0.0 | 0.0 | 0.00 | 0.00 | 0.00 | 75 | 1014.8 |
| 20260503051333 | 43 | 0 | 0.0 | 0.0 | 0.00 | 0.00 | 0.00 | 75 | 1014.8 |
| 20260503050833 | 43 | 0 | 0.0 | 0.0 | 0.00 | 0.00 | 0.00 | 75 | 1014.8 |
| 20260503050333 | 42 | 0 | 0.0 | 0.0 | 0.00 | 0.00 | 0.00 | 76 | 1014.9 |
| 20260503045833 | 42 | 0 | 0.0 | 0.0 | 0.00 | 0.00 | 0.00 | 77 | 1014.9 |
| 20260503045333 | 42 | 0 | 0.0 | 0.0 | 0.00 | 0.00 | 0.00 | 78 | 1014.9 |
| 20260503044833 | 42 | 0 | 0.0 | 0.0 | 0.00 | 0.00 | 0.00 | 80 | 1014.9 |
| 20260503044333 | 42 | 0 | 0.0 | 0.0 | 0.00 | 0.00 | 0.00 | 82 | 1014.9 |
| 20260503043833 | 42 | 0 | 0.0 | 0.0 | 0.00 | 0.00 | 0.00 | 83 | 1014.9 |
| 20260503043333 | 42 | 0 | 0.0 | 0.0 | 0.00 | 0.00 | 0.00 | 83 | 1014.9 |
| 20260503042833 | 42 | 0 | 0.0 | 0.0 | 0.00 | 0.00 | 0.00 | 83 | 1014.9 |
| 20260503042333 | 42 | 0 | 0.0 | 0.0 | 0.00 | 0.00 | 0.00 | 84 | 1015.0 |
| 20260503041833 | 42 | 0 | 0.0 | 0.0 | 0.00 | 0.00 | 0.00 | 84 | 1015.0 |
| 20260503041333 | 42 | 0 | 0.0 | 0.0 | 0.00 | 0.00 | 0.00 | 84 | 1015.0 |
| 20260503040833 | 42 | 0 | 0.0 | 0.0 | 0.00 | 0.00 | 0.00 | 84 | 1015.0 |
| 20260503040333 | 42 | 0 | 0.0 | 0.0 | 0.00 | 0.00 | 0.00 | 84 | 1015.0 |
| 20260503035833 | 42 | 0 | 0.0 | 0.0 | 0.00 | 0.00 | 0.00 | 84 | 1015.0 |
| 20260503035333 | 42 | 0 | 0.0 | 0.0 | 0.00 | 0.00 | 0.00 | 84 | 1015.0 |
| 20260503034833 | 42 | 0 | 0.0 | 0.0 | 0.00 | 0.00 | 0.00 | 84 | 1015.1 |
| 20260503034333 | 42 | 0 | 0.0 | 0.0 | 0.00 | 0.00 | 0.00 | 84 | 1015.1 |
| 20260503033833 | 42 | 0 | 0.0 | 0.0 | 0.00 | 0.00 | 0.00 | 84 | 1015.1 |
| 20260503033333 | 42 | 0 | 0.0 | 0.0 | 0.00 | 0.00 | 0.00 | 84 | 1015.1 |
| 20260503032833 | 43 | 0 | 0.0 | 0.0 | 0.00 | 0.00 | 0.00 | 83 | 1015.2 |
| 20260503032333 | 43 | 0 | 0.0 | 0.0 | 0.00 | 0.00 | 0.00 | 83 | 1015.2 |
| 20260503031833 | 43 | 0 | 0.0 | 0.0 | 0.00 | 0.00 | 0.00 | 83 | 1015.2 |
| 20260503031333 | 43 | 0 | 0.0 | 0.0 | 0.00 | 0.00 | 0.00 | 83 | 1015.3 |
| 20260503030833 | 43 | 0 | 0.0 | 0.0 | 0.00 | 0.00 | 0.00 | 83 | 1015.3 |
| 20260503030333 | 43 | 0 | 0.0 | 0.0 | 0.00 | 0.00 | 0.00 | 83 | 1015.4 |
| 20260503025833 | 43 | 0 | 0.0 | 0.0 | 0.00 | 0.00 | 0.00 | 83 | 1015.4 |
| 20260503025333 | 43 | 0 | 0.0 | 0.0 | 0.00 | 0.00 | 0.00 | 82 | 1015.3 |
| 20260503024833 | 44 | 0 | 0.0 | 0.0 | 0.00 | 0.00 | 0.00 | 82 | 1015.4 |
| 20260503024333 | 44 | 0 | 0.0 | 0.0 | 0.00 | 0.00 | 0.00 | 82 | 1015.4 |
| 20260503023833 | 44 | 0 | 0.0 | 0.0 | 0.00 | 0.00 | 0.00 | 82 | 1015.4 |
| 20260503023333 | 44 | 0 | 0.0 | 0.0 | 0.00 | 0.00 | 0.00 | 81 | 1015.3 |
| 20260503022833 | 44 | 0 | 0.0 | 0.0 | 0.00 | 0.00 | 0.00 | 81 | 1015.4 |
| 20260503022333 | 45 | 0 | 0.0 | 0.0 | 0.00 | 0.00 | 0.00 | 81 | 1015.4 |
| 20260503021833 | 45 | 0 | 0.0 | 0.0 | 0.00 | 0.00 | 0.00 | 80 | 1015.4 |
| 20260503021333 | 45 | 0 | 0.0 | 0.0 | 0.00 | 0.00 | 0.00 | 80 | 1015.5 |
| 20260503020833 | 45 | 0 | 0.0 | 0.0 | 0.00 | 0.00 | 0.00 | 80 | 1015.4 |
| 20260503020333 | 45 | 0 | 0.0 | 0.0 | 0.00 | 0.00 | 0.00 | 79 | 1015.3 |
| 20260503015833 | 46 | 0 | 0.0 | 0.0 | 0.00 | 0.00 | 0.00 | 79 | 1015.3 |
| 20260503015333 | 46 | 0 | 0.0 | 0.0 | 0.00 | 0.00 | 0.00 | 79 | 1015.2 |
| 20260503014833 | 46 | 0 | 0.0 | 0.0 | 0.00 | 0.00 | 0.00 | 78 | 1015.2 |
| 20260503014333 | 46 | 0 | 0.0 | 0.0 | 0.00 | 0.00 | 0.00 | 77 | 1015.2 |
| 20260503013833 | 47 | 0 | 0.0 | 0.0 | 0.00 | 0.00 | 0.00 | 77 | 1015.2 |
| 20260503013333 | 47 | 0 | 0.0 | 0.0 | 0.00 | 0.00 | 0.00 | 76 | 1015.2 |
| 20260503012333 | 48 | 0 | 0.0 | 0.0 | 0.00 | 0.00 | 0.00 | 75 | 1015.3 |
| 20260503011833 | 48 | 0 | 0.0 | 0.0 | 0.00 | 0.00 | 0.00 | 74 | 1015.3 |
| 20260503011333 | 48 | 0 | 0.0 | 0.0 | 0.00 | 0.00 | 0.00 | 73 | 1015.3 |
| 20260503010833 | 48 | 0 | 0.0 | 0.0 | 0.00 | 0.00 | 0.00 | 72 | 1015.3 |
| 20260503010333 | 49 | 0 | 0.0 | 0.0 | 0.00 | 0.00 | 0.00 | 72 | 1015.2 |
| 20260503005833 | 49 | 0 | 0.0 | 0.0 | 0.00 | 0.00 | 0.00 | 71 | 1015.2 |
| 20260503005333 | 49 | 0 | 0.0 | 0.0 | 0.00 | 0.00 | 0.00 | 70 | 1015.2 |
| 20260503004833 | 50 | 0 | 0.0 | 0.0 | 0.00 | 0.00 | 0.00 | 70 | 1015.2 |
| 20260503004333 | 50 | 0 | 0.0 | 0.0 | 0.00 | 0.00 | 0.00 | 69 | 1015.2 |
| 20260503003833 | 50 | 0 | 0.0 | 0.0 | 0.00 | 0.00 | 0.00 | 69 | 1015.3 |
| 20260503003333 | 50 | 0 | 0.0 | 0.0 | 0.00 | 0.00 | 0.00 | 68 | 1015.4 |
| 20260503002833 | 51 | 0 | 0.0 | 0.0 | 0.00 | 0.00 | 0.00 | 68 | 1015.3 |
| 20260503002333 | 51 | 0 | 0.0 | 0.0 | 0.00 | 0.00 | 0.00 | 67 | 1015.5 |
| 20260503001833 | 51 | 0 | 0.0 | 0.0 | 0.00 | 0.00 | 0.00 | 67 | 1015.4 |
| 20260503000833 | 51 | 0 | 0.0 | 0.0 | 0.00 | 0.00 | 0.00 | 66 | 1015.4 |
| 20260503000333 | 51 | 0 | 0.0 | 0.0 | 0.00 | 0.00 | 0.00 | 66 | 1015.3 |
| 20260502235833 | 51 | 209 | 0.0 | 2.0 | 0.00 | 0.00 | 0.00 | 65 | 1015.4 |
| 20260502235333 | 51 | 209 | 0.0 | 2.0 | 0.00 | 0.00 | 0.00 | 65 | 1015.4 |
| 20260502234833 | 51 | 157 | 0.0 | 1.0 | 0.00 | 0.00 | 0.00 | 64 | 1015.5 |
| 20260502234333 | 52 | 157 | 0.0 | 1.0 | 0.00 | 0.00 | 0.00 | 63 | 1015.5 |
| 20260502233833 | 52 | 157 | 0.0 | 1.0 | 0.00 | 0.00 | 0.00 | 62 | 1015.7 |
| 20260502233333 | 52 | 157 | 0.0 | 1.0 | 0.00 | 0.00 | 0.00 | 62 | 1015.8 |
| 20260502232833 | 52 | 157 | 0.0 | 2.0 | 0.00 | 0.00 | 0.00 | 62 | 1015.8 |
| 20260502232333 | 52 | 156 | 0.0 | 2.0 | 0.00 | 0.00 | 0.00 | 61 | 1015.8 |
| 20260502231833 | 52 | 170 | 0.0 | 3.0 | 0.00 | 0.00 | 0.00 | 61 | 1015.9 |
| 20260502231333 | 52 | 167 | 0.0 | 3.0 | 0.00 | 0.00 | 0.00 | 60 | 1015.8 |
| 20260502230833 | 52 | 0 | 0.0 | 0.0 | 0.00 | 0.00 | 0.00 | 60 | 1015.9 |
| 20260502230333 | 52 | 0 | 0.0 | 0.0 | 0.00 | 0.00 | 0.00 | 61 | 1015.9 |
| 20260502225833 | 52 | 163 | 0.0 | 2.0 | 0.00 | 0.00 | 0.00 | 60 | 1016.0 |